Location: Davayat
(45.9471°N, 3.1105°E)
Time: 16:04:58
(UTC+00:00)

Cosmos 1515 Rocket - Pass Details

Date: 01 December 2020
Orbit: 606 x 630 km, 82.5° (Epoch: 17 January)

Event Time Altitude Azimuth Distance (km) Brightness Sun altitude
Rises 17:13:41 0° 171° (S) 2,870 7.1 -11.7°
Reaches altitude 10° 17:15:57 10° 165° (SSE) 1,974 6.2 -12.1°
Maximum altitude 17:20:07 45° 93° (E) 853 3.9 -12.8°
Drops below altitude 10° 17:24:20 10° 21° (NNE) 2,005 5.8 -13.5°
Enters shadow 17:25:12 - 18° (NNE) 2,339 6.2 -13.6°
